Year,Month,Day,Hour,Minute,Value (Times are PST for windgust in km/hr)
2012,01,22,00,00,6.40
2012,01,22,00,01,3.20
2012,01,22,00,02,4.80
2012,01,22,00,03,3.20
2012,01,22,00,04,8.10
2012,01,22,00,05,6.40
2012,01,22,00,06,8.10
2012,01,22,00,07,4.80
2012,01,22,00,08,1.60
2012,01,22,00,09,1.60
2012,01,22,00,10,6.40
2012,01,22,00,11,4.80
2012,01,22,00,12,4.80
2012,01,22,00,17,6.40
2012,01,22,00,18,3.20
2012,01,22,00,21,1.60
2012,01,22,00,22,1.60
2012,01,22,00,24,1.60
2012,01,22,00,25,3.20
2012,01,22,00,26,1.60
2012,01,22,00,27,1.60
2012,01,22,00,28,1.60
2012,01,22,00,29,4.80
2012,01,22,00,30,6.40
2012,01,22,00,31,1.60
2012,01,22,00,32,3.20
2012,01,22,00,33,1.60
2012,01,22,00,35,3.20
2012,01,22,00,36,4.80
2012,01,22,00,37,3.20
2012,01,22,00,38,3.20
2012,01,22,00,39,3.20
2012,01,22,00,40,1.60
2012,01,22,00,41,3.20
2012,01,22,00,42,3.20
2012,01,22,00,43,1.60
2012,01,22,00,44,1.60
2012,01,22,00,45,1.60
2012,01,22,00,47,1.60
2012,01,22,00,50,1.60
2012,01,22,00,51,3.20
2012,01,22,00,52,3.20
2012,01,22,00,53,1.60
2012,01,22,00,54,1.60
2012,01,22,00,56,3.20
2012,01,22,00,57,1.60
2012,01,22,01,02,1.60
2012,01,22,01,03,3.20
2012,01,22,01,04,1.60
2012,01,22,01,05,1.60
2012,01,22,01,06,4.80
2012,01,22,01,07,4.80
2012,01,22,01,08,3.20
2012,01,22,01,09,1.60
2012,01,22,01,10,1.60
2012,01,22,01,13,1.60
2012,01,22,01,14,1.60
2012,01,22,01,15,1.60
2012,01,22,01,16,3.20
2012,01,22,01,17,1.60
2012,01,22,01,18,1.60
2012,01,22,01,23,1.60
2012,01,22,01,24,3.20
2012,01,22,01,25,3.20
2012,01,22,01,26,3.20
2012,01,22,01,28,1.60
2012,01,22,01,29,3.20
2012,01,22,01,30,1.60
2012,01,22,01,37,3.20
2012,01,22,01,38,1.60
2012,01,22,01,39,1.60
2012,01,22,01,40,4.80
2012,01,22,01,41,3.20
2012,01,22,01,42,3.20
2012,01,22,01,43,1.60
2012,01,22,01,45,1.60
2012,01,22,01,46,1.60
2012,01,22,01,47,1.60
2012,01,22,01,48,4.80
2012,01,22,01,49,3.20
2012,01,22,01,50,1.60
2012,01,22,01,51,3.20
2012,01,22,01,52,3.20
2012,01,22,01,53,1.60
2012,01,22,01,54,1.60
2012,01,22,01,56,1.60
2012,01,22,01,59,1.60
2012,01,22,02,03,1.60
2012,01,22,02,04,1.60
2012,01,22,02,05,1.60
2012,01,22,02,11,1.60
2012,01,22,02,12,1.60
2012,01,22,02,13,1.60
2012,01,22,02,14,1.60
2012,01,22,02,18,1.60
2012,01,22,02,19,1.60
2012,01,22,02,20,1.60
2012,01,22,02,21,1.60
2012,01,22,02,22,3.20
2012,01,22,02,23,4.80
2012,01,22,02,24,3.20
2012,01,22,02,25,3.20
2012,01,22,02,26,1.60
2012,01,22,02,27,1.60
2012,01,22,02,28,3.20
2012,01,22,02,29,4.80
2012,01,22,02,30,3.20
2012,01,22,02,31,3.20
2012,01,22,02,32,1.60
2012,01,22,02,33,3.20
2012,01,22,02,34,3.20
2012,01,22,02,35,3.20
2012,01,22,02,36,4.80
2012,01,22,02,37,4.80
2012,01,22,02,38,3.20
2012,01,22,02,39,3.20
2012,01,22,02,41,1.60
2012,01,22,02,42,4.80
2012,01,22,02,43,6.40
2012,01,22,02,44,6.40
2012,01,22,02,45,9.60
2012,01,22,02,46,3.20
2012,01,22,02,47,1.60
2012,01,22,02,48,1.60
2012,01,22,02,49,4.80
2012,01,22,02,50,8.10
2012,01,22,02,51,9.60
2012,01,22,02,52,11.30
2012,01,22,02,53,8.10
2012,01,22,02,54,9.60
2012,01,22,02,55,8.10
2012,01,22,02,56,9.60
2012,01,22,02,57,4.80
2012,01,22,02,58,6.40
2012,01,22,02,59,6.40
2012,01,22,03,00,3.20
2012,01,22,03,01,9.60
2012,01,22,03,02,6.40
2012,01,22,03,03,12.90
2012,01,22,03,04,12.90
2012,01,22,03,05,4.80
2012,01,22,03,06,6.40
2012,01,22,03,07,3.20
2012,01,22,03,08,8.10
2012,01,22,03,09,9.60
2012,01,22,03,10,6.40
2012,01,22,03,11,11.30
2012,01,22,03,12,9.60
2012,01,22,03,13,8.10
2012,01,22,03,14,4.80
2012,01,22,03,15,6.40
2012,01,22,03,16,6.40
2012,01,22,03,17,3.20
2012,01,22,03,18,8.10
2012,01,22,03,19,9.60
2012,01,22,03,20,3.20
2012,01,22,03,21,9.60
2012,01,22,03,22,6.40
2012,01,22,03,23,8.10
2012,01,22,03,24,8.10
2012,01,22,03,25,8.10
2012,01,22,03,26,4.80
2012,01,22,03,27,4.80
2012,01,22,03,28,8.10
2012,01,22,03,29,6.40
2012,01,22,03,30,4.80
2012,01,22,03,31,3.20
2012,01,22,03,32,4.80
2012,01,22,03,33,8.10
2012,01,22,03,34,4.80
2012,01,22,03,35,9.60
2012,01,22,03,36,3.20
2012,01,22,03,37,4.80
2012,01,22,03,38,6.40
2012,01,22,03,39,6.40
2012,01,22,03,40,3.20
2012,01,22,03,41,3.20
2012,01,22,03,42,8.10
2012,01,22,03,43,6.40
2012,01,22,03,44,9.60
2012,01,22,03,45,11.30
2012,01,22,03,46,8.10
2012,01,22,03,47,9.60
2012,01,22,03,48,6.40
2012,01,22,03,49,4.80
2012,01,22,03,50,6.40
2012,01,22,03,51,4.80
2012,01,22,03,52,9.60
2012,01,22,03,53,8.10
2012,01,22,03,54,14.50
2012,01,22,03,55,6.40
2012,01,22,03,56,4.80
2012,01,22,03,57,4.80
2012,01,22,03,58,8.10
2012,01,22,03,59,16.10
2012,01,22,04,00,8.10
2012,01,22,04,01,9.60
2012,01,22,04,02,11.30
2012,01,22,04,03,11.30
2012,01,22,04,04,9.60
2012,01,22,04,05,11.30
2012,01,22,04,06,8.10
2012,01,22,04,07,11.30
2012,01,22,04,08,4.80
2012,01,22,04,09,9.60
2012,01,22,04,10,9.60
2012,01,22,04,11,8.10
2012,01,22,04,12,4.80
2012,01,22,04,13,9.60
2012,01,22,04,14,19.30
2012,01,22,04,15,9.60
2012,01,22,04,16,4.80
2012,01,22,04,17,11.30
2012,01,22,04,18,8.10
2012,01,22,04,19,6.40
2012,01,22,04,20,14.50
2012,01,22,04,21,3.20
2012,01,22,04,22,3.20
2012,01,22,04,23,8.10
2012,01,22,04,24,14.50
2012,01,22,04,25,9.60
2012,01,22,04,26,8.10
2012,01,22,04,27,9.60
2012,01,22,04,28,9.60
2012,01,22,04,29,9.60
2012,01,22,04,30,4.80
2012,01,22,04,31,4.80
2012,01,22,04,32,6.40
2012,01,22,04,33,9.60
2012,01,22,04,34,4.80
2012,01,22,04,35,3.20
2012,01,22,04,36,1.60
2012,01,22,04,38,1.60
2012,01,22,04,39,4.80
2012,01,22,04,40,1.60
2012,01,22,04,41,4.80
2012,01,22,04,42,3.20
2012,01,22,04,43,6.40
2012,01,22,04,44,8.10
2012,01,22,04,45,3.20
2012,01,22,04,46,6.40
2012,01,22,04,47,4.80
2012,01,22,04,48,1.60
2012,01,22,04,49,1.60
2012,01,22,04,50,4.80
2012,01,22,04,51,3.20
2012,01,22,04,52,6.40
2012,01,22,04,53,6.40
2012,01,22,04,54,3.20
2012,01,22,04,55,1.60
2012,01,22,04,56,1.60
2012,01,22,04,57,1.60
2012,01,22,04,58,6.40
2012,01,22,04,59,3.20
2012,01,22,05,00,4.80
2012,01,22,05,01,6.40
2012,01,22,05,02,4.80
2012,01,22,05,03,3.20
2012,01,22,05,04,4.80
2012,01,22,05,05,6.40
2012,01,22,05,06,6.40
2012,01,22,05,07,4.80
2012,01,22,05,08,4.80
2012,01,22,05,09,4.80
2012,01,22,05,10,6.40
2012,01,22,05,11,6.40
2012,01,22,05,12,6.40
2012,01,22,05,13,1.60
2012,01,22,05,14,4.80
2012,01,22,05,15,6.40
2012,01,22,05,16,4.80
2012,01,22,05,17,8.10
2012,01,22,05,18,4.80
2012,01,22,05,19,4.80
2012,01,22,05,20,6.40
2012,01,22,05,21,1.60
2012,01,22,05,22,3.20
2012,01,22,05,23,16.10
2012,01,22,05,24,8.10
2012,01,22,05,25,6.40
2012,01,22,05,26,6.40
2012,01,22,05,27,6.40
2012,01,22,05,28,6.40
2012,01,22,05,29,6.40
2012,01,22,05,30,8.10
2012,01,22,05,31,8.10
2012,01,22,05,32,6.40
2012,01,22,05,33,4.80
2012,01,22,05,34,6.40
2012,01,22,05,35,3.20
2012,01,22,05,36,4.80
2012,01,22,05,37,9.60
2012,01,22,05,38,6.40
2012,01,22,05,39,14.50
2012,01,22,05,40,6.40
2012,01,22,05,41,8.10
2012,01,22,05,42,6.40
2012,01,22,05,43,14.50
2012,01,22,05,44,9.60
2012,01,22,05,45,6.40
2012,01,22,05,46,6.40
2012,01,22,05,47,8.10
2012,01,22,05,48,11.30
2012,01,22,05,49,6.40
2012,01,22,05,50,17.70
2012,01,22,05,51,9.60
2012,01,22,05,52,16.10
2012,01,22,05,53,8.10
2012,01,22,05,54,6.40
2012,01,22,05,55,4.80
2012,01,22,05,56,8.10
2012,01,22,05,57,8.10
2012,01,22,05,58,9.60
2012,01,22,05,59,8.10
2012,01,22,06,00,6.40
2012,01,22,06,01,16.10
2012,01,22,06,02,4.80
2012,01,22,06,03,9.60
2012,01,22,06,04,6.40
2012,01,22,06,05,14.50
2012,01,22,06,06,9.60
2012,01,22,06,07,16.10
2012,01,22,06,08,11.30
2012,01,22,06,09,6.40
2012,01,22,06,10,8.10
2012,01,22,06,11,6.40
2012,01,22,06,12,6.40
2012,01,22,06,13,6.40
2012,01,22,06,14,9.60
2012,01,22,06,15,17.70
2012,01,22,06,16,11.30
2012,01,22,06,17,11.30
2012,01,22,06,18,16.10
2012,01,22,06,19,6.40
2012,01,22,06,20,8.10
2012,01,22,06,21,8.10
2012,01,22,06,22,9.60
2012,01,22,06,23,8.10
2012,01,22,06,24,3.20
2012,01,22,06,25,3.20
2012,01,22,06,26,8.10
2012,01,22,06,27,8.10
2012,01,22,06,28,8.10
2012,01,22,06,29,4.80
2012,01,22,06,30,11.30
2012,01,22,06,31,6.40
2012,01,22,06,32,9.60
2012,01,22,06,33,9.60
2012,01,22,06,34,11.30
2012,01,22,06,35,14.50
2012,01,22,06,36,6.40
2012,01,22,06,37,11.30
2012,01,22,06,38,8.10
2012,01,22,06,39,6.40
2012,01,22,06,40,8.10
2012,01,22,06,41,9.60
2012,01,22,06,42,9.60
2012,01,22,06,43,14.50
2012,01,22,06,44,11.30
2012,01,22,06,45,9.60
2012,01,22,06,46,8.10
2012,01,22,06,47,11.30
2012,01,22,06,48,9.60
2012,01,22,06,49,9.60
2012,01,22,06,50,4.80
2012,01,22,06,51,9.60
2012,01,22,06,52,8.10
2012,01,22,06,53,8.10
2012,01,22,06,54,9.60
2012,01,22,06,55,8.10
2012,01,22,06,56,8.10
2012,01,22,06,57,9.60
2012,01,22,06,58,11.30
2012,01,22,06,59,9.60
2012,01,22,07,00,8.10
2012,01,22,07,01,14.50
2012,01,22,07,02,6.40
2012,01,22,07,03,11.30
2012,01,22,07,04,6.40
2012,01,22,07,05,8.10
2012,01,22,07,06,8.10
2012,01,22,07,07,8.10
2012,01,22,07,08,9.60
2012,01,22,07,09,9.60
2012,01,22,07,10,11.30
2012,01,22,07,11,4.80
2012,01,22,07,12,9.60
2012,01,22,07,13,4.80
2012,01,22,07,14,4.80
2012,01,22,07,15,6.40
2012,01,22,07,16,12.90
2012,01,22,07,17,9.60
2012,01,22,07,18,8.10
2012,01,22,07,19,8.10
2012,01,22,07,20,11.30
2012,01,22,07,21,8.10
2012,01,22,07,22,6.40
2012,01,22,07,23,3.20
2012,01,22,07,24,9.60
2012,01,22,07,25,11.30
2012,01,22,07,26,11.30
2012,01,22,07,27,8.10
2012,01,22,07,28,4.80
2012,01,22,07,29,9.60
2012,01,22,07,30,8.10
2012,01,22,07,31,8.10
2012,01,22,07,32,8.10
2012,01,22,07,33,11.30
2012,01,22,07,34,20.90
2012,01,22,07,35,19.30
2012,01,22,07,36,9.60
2012,01,22,07,37,4.80
2012,01,22,07,38,9.60
2012,01,22,07,39,11.30
2012,01,22,07,40,8.10
2012,01,22,07,41,14.50
2012,01,22,07,42,6.40
2012,01,22,07,43,11.30
2012,01,22,07,44,9.60
2012,01,22,07,45,12.90
2012,01,22,07,46,8.10
2012,01,22,07,47,9.60
2012,01,22,07,48,6.40
2012,01,22,07,49,16.10
2012,01,22,07,50,16.10
2012,01,22,07,51,4.80
2012,01,22,07,52,9.60
2012,01,22,07,53,17.70
2012,01,22,07,54,9.60
2012,01,22,07,55,6.40
2012,01,22,07,56,14.50
2012,01,22,07,57,16.10
2012,01,22,07,58,11.30
2012,01,22,07,59,11.30
2012,01,22,08,00,11.30
2012,01,22,08,01,16.10
2012,01,22,08,02,6.40
2012,01,22,08,03,8.10
2012,01,22,08,04,6.40
2012,01,22,08,05,8.10
2012,01,22,08,06,6.40
2012,01,22,08,07,11.30
2012,01,22,08,08,11.30
2012,01,22,08,09,12.90
2012,01,22,08,10,14.50
2012,01,22,08,11,11.30
2012,01,22,08,12,6.40
2012,01,22,08,13,9.60
2012,01,22,08,14,9.60
2012,01,22,08,15,17.70
2012,01,22,08,16,6.40
2012,01,22,08,17,12.90
2012,01,22,08,18,9.60
2012,01,22,08,19,8.10
2012,01,22,08,20,9.60
2012,01,22,08,21,8.10
2012,01,22,08,22,11.30
2012,01,22,08,23,9.60
2012,01,22,08,24,8.10
2012,01,22,08,25,11.30
2012,01,22,08,26,9.60
2012,01,22,08,27,9.60
2012,01,22,08,28,8.10
2012,01,22,08,29,11.30
2012,01,22,08,30,14.50
2012,01,22,08,31,8.10
2012,01,22,08,32,9.60
2012,01,22,08,33,19.30
2012,01,22,08,34,8.10
2012,01,22,08,35,9.60
2012,01,22,08,36,14.50
2012,01,22,08,37,11.30
2012,01,22,08,38,14.50
2012,01,22,08,39,8.10
2012,01,22,08,40,11.30
2012,01,22,08,41,16.10
2012,01,22,08,42,8.10
2012,01,22,08,43,17.70
2012,01,22,08,44,16.10
2012,01,22,08,45,4.80
2012,01,22,08,46,17.70
2012,01,22,08,47,17.70
2012,01,22,08,48,8.10
2012,01,22,08,49,6.40
2012,01,22,08,50,8.10
2012,01,22,08,51,14.50
2012,01,22,08,52,11.30
2012,01,22,08,53,17.70
2012,01,22,08,54,6.40
2012,01,22,08,55,14.50
2012,01,22,08,56,11.30
2012,01,22,08,57,20.90
2012,01,22,08,58,8.10
2012,01,22,08,59,9.60
2012,01,22,09,00,9.60
2012,01,22,09,01,11.30
2012,01,22,09,02,17.70
2012,01,22,09,03,8.10
2012,01,22,09,04,8.10
2012,01,22,09,05,9.60
2012,01,22,09,06,6.40
2012,01,22,09,07,9.60
2012,01,22,09,08,11.30
2012,01,22,09,09,14.50
2012,01,22,09,10,4.80
2012,01,22,09,11,19.30
2012,01,22,09,12,9.60
2012,01,22,09,13,8.10
2012,01,22,09,14,4.80
2012,01,22,09,15,4.80
2012,01,22,09,16,9.60
2012,01,22,09,17,14.50
2012,01,22,09,18,9.60
2012,01,22,09,19,9.60
2012,01,22,09,20,4.80
2012,01,22,09,21,9.60
2012,01,22,09,22,9.60
2012,01,22,09,23,11.30
2012,01,22,09,24,9.60
2012,01,22,09,25,17.70
2012,01,22,09,26,12.90
2012,01,22,09,27,8.10
2012,01,22,09,28,6.40
2012,01,22,09,29,3.20
2012,01,22,09,30,8.10
2012,01,22,09,31,8.10
2012,01,22,09,32,4.80
2012,01,22,09,33,11.30
2012,01,22,09,34,6.40
2012,01,22,09,35,4.80
2012,01,22,09,36,8.10
2012,01,22,09,37,9.60
2012,01,22,09,38,24.20
2012,01,22,09,39,14.50
2012,01,22,09,40,6.40
2012,01,22,09,41,19.30
2012,01,22,09,42,14.50
2012,01,22,09,43,9.60
2012,01,22,09,44,8.10
2012,01,22,09,45,8.10
2012,01,22,09,46,6.40
2012,01,22,09,47,16.10
2012,01,22,09,48,12.90
2012,01,22,09,49,8.10
2012,01,22,09,50,4.80
2012,01,22,09,51,9.60
2012,01,22,09,52,9.60
2012,01,22,09,53,8.10
2012,01,22,09,54,1.60
2012,01,22,09,55,11.30
2012,01,22,09,56,8.10
2012,01,22,09,57,9.60
2012,01,22,09,58,11.30
2012,01,22,09,59,8.10
2012,01,22,10,00,12.90
2012,01,22,10,01,4.80
2012,01,22,10,02,16.10
2012,01,22,10,03,11.30
2012,01,22,10,04,9.60
2012,01,22,10,05,16.10
2012,01,22,10,06,16.10
2012,01,22,10,07,11.30
2012,01,22,10,08,9.60
2012,01,22,10,09,8.10
2012,01,22,10,10,6.40
2012,01,22,10,11,9.60
2012,01,22,10,12,14.50
2012,01,22,10,13,8.10
2012,01,22,10,14,6.40
2012,01,22,10,15,6.40
2012,01,22,10,16,6.40
2012,01,22,10,17,8.10
2012,01,22,10,18,4.80
2012,01,22,10,19,8.10
2012,01,22,10,20,9.60
2012,01,22,10,21,6.40
2012,01,22,10,22,11.30
2012,01,22,10,23,8.10
2012,01,22,10,24,19.30
2012,01,22,10,25,11.30
2012,01,22,10,26,14.50
2012,01,22,10,27,6.40
2012,01,22,10,28,9.60
2012,01,22,10,29,8.10
2012,01,22,10,30,14.50
2012,01,22,10,31,19.30
2012,01,22,10,32,8.10
2012,01,22,10,33,20.90
2012,01,22,10,34,16.10
2012,01,22,10,35,20.90
2012,01,22,10,36,20.90
2012,01,22,10,37,9.60
2012,01,22,10,38,6.40
2012,01,22,10,39,16.10
2012,01,22,10,40,22.50
2012,01,22,10,41,11.30
2012,01,22,10,42,16.10
2012,01,22,10,43,19.30
2012,01,22,10,44,17.70
2012,01,22,10,45,9.60
2012,01,22,10,46,9.60
2012,01,22,10,47,9.60
2012,01,22,10,48,8.10
2012,01,22,10,49,14.50
2012,01,22,10,50,12.90
2012,01,22,10,51,20.90
2012,01,22,10,52,16.10
2012,01,22,10,53,20.90
2012,01,22,10,54,14.50
2012,01,22,10,55,16.10
2012,01,22,10,56,17.70
2012,01,22,10,57,14.50
2012,01,22,10,58,17.70
2012,01,22,10,59,22.50
2012,01,22,11,00,14.50
2012,01,22,11,01,16.10
2012,01,22,11,02,11.30
2012,01,22,11,03,9.60
2012,01,22,11,04,14.50
2012,01,22,11,05,19.30
2012,01,22,11,06,14.50
2012,01,22,11,07,20.90
2012,01,22,11,08,17.70
2012,01,22,11,09,11.30
2012,01,22,11,10,14.50
2012,01,22,11,11,11.30
2012,01,22,11,12,20.90
2012,01,22,11,13,17.70
2012,01,22,11,14,19.30
2012,01,22,11,15,25.70
2012,01,22,11,16,14.50
2012,01,22,11,17,16.10
2012,01,22,11,18,22.50
2012,01,22,11,19,12.90
2012,01,22,11,20,20.90
2012,01,22,11,21,19.30
2012,01,22,11,22,8.10
2012,01,22,11,23,27.40
2012,01,22,11,24,25.70
2012,01,22,11,25,17.70
2012,01,22,11,26,11.30
2012,01,22,11,27,11.30
2012,01,22,11,28,16.10
2012,01,22,11,29,22.50
2012,01,22,11,30,17.70
2012,01,22,11,31,19.30
2012,01,22,11,32,11.30
2012,01,22,11,33,27.40
2012,01,22,11,34,16.10
2012,01,22,11,35,19.30
2012,01,22,11,36,16.10
2012,01,22,11,37,9.60
2012,01,22,11,38,9.60
2012,01,22,11,39,6.40
2012,01,22,11,40,14.50
2012,01,22,11,41,16.10
2012,01,22,11,42,16.10
2012,01,22,11,43,9.60
2012,01,22,11,44,17.70
2012,01,22,11,45,9.60
2012,01,22,11,46,17.70
2012,01,22,11,47,11.30
2012,01,22,11,48,9.60
2012,01,22,11,49,11.30
2012,01,22,11,50,17.70
2012,01,22,11,51,14.50
2012,01,22,11,52,27.40
2012,01,22,11,53,12.90
2012,01,22,11,54,19.30
2012,01,22,11,55,16.10
2012,01,22,11,56,20.90
2012,01,22,11,57,9.60
2012,01,22,11,58,14.50
2012,01,22,11,59,6.40
2012,01,22,12,00,22.50
2012,01,22,12,01,9.60
2012,01,22,12,02,9.60
2012,01,22,12,03,6.40
2012,01,22,12,04,19.30
2012,01,22,12,05,16.10
2012,01,22,12,06,16.10
2012,01,22,12,07,19.30
2012,01,22,12,08,14.50
2012,01,22,12,09,14.50
2012,01,22,12,10,11.30
2012,01,22,12,11,19.30
2012,01,22,12,12,9.60
2012,01,22,12,13,9.60
2012,01,22,12,14,9.60
2012,01,22,12,15,6.40
2012,01,22,12,16,16.10
2012,01,22,12,17,19.30
2012,01,22,12,18,6.40
2012,01,22,12,19,11.30
2012,01,22,12,20,11.30
2012,01,22,12,21,16.10
2012,01,22,12,22,11.30
2012,01,22,12,23,16.10
2012,01,22,12,24,17.70
2012,01,22,12,25,20.90
2012,01,22,12,26,14.50
2012,01,22,12,27,20.90
2012,01,22,12,28,17.70
2012,01,22,12,29,17.70
2012,01,22,12,30,16.10
2012,01,22,12,31,19.30
2012,01,22,12,32,16.10
2012,01,22,12,33,17.70
2012,01,22,12,34,19.30
2012,01,22,12,35,14.50
2012,01,22,12,36,16.10
2012,01,22,12,37,27.40
2012,01,22,12,38,14.50
2012,01,22,12,39,14.50
2012,01,22,12,40,11.30
2012,01,22,12,41,19.30
2012,01,22,12,42,17.70
2012,01,22,12,43,17.70
2012,01,22,12,44,32.20
2012,01,22,12,45,14.50
2012,01,22,12,46,30.60
2012,01,22,12,47,16.10
2012,01,22,12,48,20.90
2012,01,22,12,49,17.70
2012,01,22,12,50,22.50
2012,01,22,12,51,16.10
2012,01,22,12,52,19.30
2012,01,22,12,53,14.50
2012,01,22,12,54,9.60
2012,01,22,12,55,16.10
2012,01,22,12,56,11.30
2012,01,22,12,57,19.30
2012,01,22,12,58,16.10
2012,01,22,12,59,17.70
2012,01,22,13,00,24.20
2012,01,22,13,01,14.50
2012,01,22,13,02,25.70
2012,01,22,13,03,9.60
2012,01,22,13,04,16.10
2012,01,22,13,05,19.30
2012,01,22,13,06,17.70
2012,01,22,13,07,22.50
2012,01,22,13,08,19.30
2012,01,22,13,09,19.30
2012,01,22,13,10,14.50
2012,01,22,13,11,14.50
2012,01,22,13,12,8.10
2012,01,22,13,13,29.00
2012,01,22,13,14,8.10
2012,01,22,13,15,9.60
2012,01,22,13,16,4.80
2012,01,22,13,17,11.30
2012,01,22,13,18,9.60
2012,01,22,13,19,16.10
2012,01,22,13,20,16.10
2012,01,22,13,21,14.50
2012,01,22,13,22,8.10
2012,01,22,13,23,9.60
2012,01,22,13,24,9.60
2012,01,22,13,25,11.30
2012,01,22,13,26,1.60
2012,01,22,13,27,8.10
2012,01,22,13,28,9.60
2012,01,22,13,29,14.50
2012,01,22,13,30,14.50
2012,01,22,13,31,8.10
2012,01,22,13,32,6.40
2012,01,22,13,33,9.60
2012,01,22,13,34,19.30
2012,01,22,13,35,8.10
2012,01,22,13,36,6.40
2012,01,22,13,37,6.40
2012,01,22,13,38,8.10
2012,01,22,13,39,6.40
2012,01,22,13,40,3.20
2012,01,22,13,41,4.80
2012,01,22,13,42,4.80
2012,01,22,13,43,9.60
2012,01,22,13,44,14.50
2012,01,22,13,45,6.40
2012,01,22,13,46,6.40
2012,01,22,13,47,8.10
2012,01,22,13,48,11.30
2012,01,22,13,49,12.90
2012,01,22,13,50,6.40
2012,01,22,13,51,9.60
2012,01,22,13,52,11.30
2012,01,22,13,53,6.40
2012,01,22,13,54,8.10
2012,01,22,13,55,11.30
2012,01,22,13,56,12.90
2012,01,22,13,57,16.10
2012,01,22,13,58,8.10
2012,01,22,13,59,16.10
2012,01,22,14,00,16.10
2012,01,22,14,01,17.70
2012,01,22,14,02,11.30
2012,01,22,14,03,8.10
2012,01,22,14,04,9.60
2012,01,22,14,05,8.10
2012,01,22,14,06,6.40
2012,01,22,14,07,6.40
2012,01,22,14,08,4.80
2012,01,22,14,09,6.40
2012,01,22,14,10,8.10
2012,01,22,14,11,3.20
2012,01,22,14,12,4.80
2012,01,22,14,13,6.40
2012,01,22,14,14,9.60
2012,01,22,14,15,9.60
2012,01,22,14,16,4.80
2012,01,22,14,17,4.80
2012,01,22,14,18,8.10
2012,01,22,14,19,6.40
2012,01,22,14,20,6.40
2012,01,22,14,21,4.80
2012,01,22,14,22,6.40
2012,01,22,14,23,4.80
2012,01,22,14,24,1.60
2012,01,22,14,25,4.80
2012,01,22,14,26,1.60
2012,01,22,14,27,4.80
2012,01,22,14,28,4.80
2012,01,22,14,29,3.20
2012,01,22,14,30,8.10
2012,01,22,14,31,8.10
2012,01,22,14,32,6.40
2012,01,22,14,33,6.40
2012,01,22,14,34,6.40
2012,01,22,14,35,6.40
2012,01,22,14,36,6.40
2012,01,22,14,37,8.10
2012,01,22,14,38,6.40
2012,01,22,14,39,3.20
2012,01,22,14,40,1.60
2012,01,22,14,42,3.20
2012,01,22,14,43,4.80
2012,01,22,14,44,3.20
2012,01,22,14,45,4.80
2012,01,22,14,46,4.80
2012,01,22,14,47,3.20
2012,01,22,14,48,4.80
2012,01,22,14,49,4.80
2012,01,22,14,50,3.20
2012,01,22,14,51,3.20
2012,01,22,14,52,3.20
2012,01,22,14,53,3.20
2012,01,22,14,54,9.60
2012,01,22,14,55,6.40
2012,01,22,14,56,3.20
2012,01,22,14,57,4.80
2012,01,22,14,58,3.20
2012,01,22,14,59,6.40
2012,01,22,15,00,4.80
2012,01,22,15,01,4.80
2012,01,22,15,02,4.80
2012,01,22,15,03,6.40
2012,01,22,15,04,6.40
2012,01,22,15,05,9.60
2012,01,22,15,06,11.30
2012,01,22,15,07,4.80
2012,01,22,15,08,6.40
2012,01,22,15,09,8.10
2012,01,22,15,10,14.50
2012,01,22,15,11,8.10
2012,01,22,15,12,3.20
2012,01,22,15,13,4.80
2012,01,22,15,14,6.40
2012,01,22,15,15,3.20
2012,01,22,15,16,4.80
2012,01,22,15,17,8.10
2012,01,22,15,18,9.60
2012,01,22,15,19,19.30
2012,01,22,15,20,14.50
2012,01,22,15,21,25.70
2012,01,22,15,22,17.70
2012,01,22,15,23,22.50
2012,01,22,15,24,22.50
2012,01,22,15,25,22.50
2012,01,22,15,26,19.30
2012,01,22,15,27,30.60
2012,01,22,15,28,27.40
2012,01,22,15,29,35.40
2012,01,22,15,30,24.20
2012,01,22,15,31,32.20
2012,01,22,15,32,17.70
2012,01,22,15,33,24.20
2012,01,22,15,34,17.70
2012,01,22,15,35,16.10
2012,01,22,15,36,32.20
2012,01,22,15,37,20.90
2012,01,22,15,38,22.50
2012,01,22,15,39,29.00
2012,01,22,15,40,17.70
2012,01,22,15,41,22.50
2012,01,22,15,42,25.70
2012,01,22,15,43,32.20
2012,01,22,15,44,32.20
2012,01,22,15,45,41.80
2012,01,22,15,46,35.40
2012,01,22,15,47,25.70
2012,01,22,15,48,27.40
2012,01,22,15,49,29.00
2012,01,22,15,50,27.40
2012,01,22,15,51,17.70
2012,01,22,15,52,27.40
2012,01,22,15,53,17.70
2012,01,22,15,54,9.60
2012,01,22,15,55,22.50
2012,01,22,15,56,25.70
2012,01,22,15,57,30.60
2012,01,22,15,58,17.70
2012,01,22,15,59,24.20
2012,01,22,16,00,19.30
2012,01,22,16,01,16.10
2012,01,22,16,02,11.30
2012,01,22,16,03,32.20
2012,01,22,16,04,20.90
2012,01,22,16,05,19.30
2012,01,22,16,06,22.50
2012,01,22,16,07,12.90
2012,01,22,16,08,16.10
2012,01,22,16,09,8.10
2012,01,22,16,10,17.70
2012,01,22,16,11,22.50
2012,01,22,16,12,25.70
2012,01,22,16,13,22.50
2012,01,22,16,14,38.60
2012,01,22,16,15,22.50
2012,01,22,16,16,30.60
2012,01,22,16,17,19.30
2012,01,22,16,18,32.20
2012,01,22,16,19,27.40
2012,01,22,16,20,29.00
2012,01,22,16,21,32.20
2012,01,22,16,22,24.20
2012,01,22,16,23,29.00
2012,01,22,16,24,27.40
2012,01,22,16,25,27.40
2012,01,22,16,26,30.60
2012,01,22,16,27,27.40
2012,01,22,16,28,33.80
2012,01,22,16,29,24.20
2012,01,22,16,30,35.40
2012,01,22,16,31,27.40
2012,01,22,16,32,40.20
2012,01,22,16,33,27.40
2012,01,22,16,34,33.80
2012,01,22,16,35,32.20
2012,01,22,16,36,40.20
2012,01,22,16,37,27.40
2012,01,22,16,38,38.60
2012,01,22,16,39,27.40
2012,01,22,16,40,24.20
2012,01,22,16,41,25.70
2012,01,22,16,42,20.90
2012,01,22,16,43,17.70
2012,01,22,16,44,38.60
2012,01,22,16,45,19.30
2012,01,22,16,46,22.50
2012,01,22,16,47,30.60
2012,01,22,16,48,30.60
2012,01,22,16,49,29.00
2012,01,22,16,50,29.00
2012,01,22,16,51,25.70
2012,01,22,16,52,17.70
2012,01,22,16,53,33.80
2012,01,22,16,54,33.80
2012,01,22,16,55,22.50
2012,01,22,16,56,22.50
2012,01,22,16,57,20.90
2012,01,22,16,58,9.60
2012,01,22,16,59,25.70
2012,01,22,17,00,22.50
2012,01,22,17,01,30.60
2012,01,22,17,02,25.70
2012,01,22,17,03,20.90
2012,01,22,17,04,24.20
2012,01,22,17,05,30.60
2012,01,22,17,06,27.40
2012,01,22,17,07,27.40
2012,01,22,17,08,30.60
2012,01,22,17,09,20.90
2012,01,22,17,10,20.90
2012,01,22,17,11,25.70
2012,01,22,17,12,14.50
2012,01,22,17,13,29.00
2012,01,22,17,14,22.50
2012,01,22,17,15,22.50
2012,01,22,17,16,22.50
2012,01,22,17,17,27.40
2012,01,22,17,18,20.90
2012,01,22,17,19,27.40
2012,01,22,17,20,29.00
2012,01,22,17,21,27.40
2012,01,22,17,22,48.30
2012,01,22,17,23,24.20
2012,01,22,17,24,22.50
2012,01,22,17,25,24.20
2012,01,22,17,26,16.10
2012,01,22,17,27,24.20
2012,01,22,17,28,24.20
2012,01,22,17,29,32.20
2012,01,22,17,30,19.30
2012,01,22,17,31,14.50
2012,01,22,17,32,11.30
2012,01,22,17,33,16.10
2012,01,22,17,34,25.70
2012,01,22,17,35,25.70
2012,01,22,17,36,24.20
2012,01,22,17,37,22.50
2012,01,22,17,38,22.50
2012,01,22,17,39,32.20
2012,01,22,17,40,24.20
2012,01,22,17,41,22.50
2012,01,22,17,42,27.40
2012,01,22,17,43,27.40
2012,01,22,17,44,20.90
2012,01,22,17,45,16.10
2012,01,22,17,46,16.10
2012,01,22,17,47,17.70
2012,01,22,17,48,22.50
2012,01,22,17,49,16.10
2012,01,22,17,50,11.30
2012,01,22,17,51,16.10
2012,01,22,17,52,17.70
2012,01,22,17,53,20.90
2012,01,22,17,54,35.40
2012,01,22,17,55,29.00
2012,01,22,17,56,35.40
2012,01,22,17,57,40.20
2012,01,22,17,58,27.40
2012,01,22,17,59,32.20
2012,01,22,18,00,22.50
2012,01,22,18,01,19.30
2012,01,22,18,02,24.20
2012,01,22,18,03,20.90
2012,01,22,18,04,24.20
2012,01,22,18,05,22.50
2012,01,22,18,06,27.40
2012,01,22,18,07,17.70
2012,01,22,18,08,25.70
2012,01,22,18,09,41.80
2012,01,22,18,10,49.90
2012,01,22,18,11,40.20
2012,01,22,18,12,25.70
2012,01,22,18,13,35.40
2012,01,22,18,14,20.90
2012,01,22,18,15,32.20
2012,01,22,18,16,22.50
2012,01,22,18,17,12.90
2012,01,22,18,18,25.70
2012,01,22,18,19,24.20
2012,01,22,18,20,17.70
2012,01,22,18,21,14.50
2012,01,22,18,22,9.60
2012,01,22,18,23,17.70
2012,01,22,18,24,6.40
2012,01,22,18,25,16.10
2012,01,22,18,26,30.60
2012,01,22,18,27,27.40
2012,01,22,18,28,22.50
2012,01,22,18,29,16.10
2012,01,22,18,30,11.30
2012,01,22,18,31,14.50
2012,01,22,18,32,17.70